Weather in Chipiona

Spain     36°44′04″N   6°25′49″W
temp.,
°C
wind,
m/s
gust,
m/s
humid.,
%
clouds,
%
prec.,
mm/h
press.,
hPa
HPBL,
m
25 may, wed
wed2523:00+21nw101453100 0.0 1014301
02:00+19nnw11146314 0.0 1015498
05:00+18n813569 0.0 1015537
08:00+17nne685238 0.0 1016279
11:00+19ne7955100 0.0 1018481
14:00+22nne5549100 0.0 101739
17:00+22nw5659100 0.0 101686
20:00+21nw2465100 0.0 101743
26 may, thu
thu2623:00+20ssw117494 0.0 101911
02:00+19sse68835 0.0 1019269
05:00+18ese677799 0.0 1018197
08:00+18ene44755 0.0 1019181
11:00+19ene11655 0.0 1020107
14:00+21nw44620 0.0 101974
17:00+23wsw55565 0.0 101853
20:00+23se913491 0.0 1017171
27 may, fri
fri2723:00+20se1116585 0.0 1019272
02:00+20e815585 0.0 1019361
05:00+19ene57610 0.0 1018177
08:00+19ne34610 0.0 1018138
11:00+21ene33560 0.0 101829
14:00+24wsw22530 0.0 101717
17:00+25sse79512 0.0 101574
20:00+24se912470 0.0 101495
28 may, sat
sat2823:00+22se813530 0.0 1015194
02:00+21ese711550 0.0 1015179
05:00+20ese59580 0.0 1015198
08:00+19e57581 0.0 1014172
11:00+21e2357100 0.0 101414
14:00+20sw677695 0.0 1014157
17:00+21sw812791 0.0 1012178
20:00+20w68810 0.0 1012184
29 may, sun
sun2923:00+20w46804 0.0 1013120
02:00+20sw348411 0.0 1013137
05:00+19sw3483100 0.0 1012297
08:00+19ssw2282100 0.0 1012239
11:00+19sw2284100 0.0 1012255
14:00+19sw5585100 0.0 1013382
17:00+19sw5684100 0.0 1011402
20:00+20wsw67845 0.0 1010467